Wind_Speed
32 31 31 31 32 32 33 34 34 35 36 38 39 39 40 40 40 40 40 39 38 38 37 35 34 33 32 32 32 31 29 28 28 26 25 25 25 25 23 23 23 22 21
29 29 29 29 30 30 31 31 31 32 33 35 36 37 38 39 38 39 39 40 39 38 38 38 36 36 34 33 34 33 31 30 29 27 27 25 24 25 25 25 24 24 23
27 28 28 27 27 27 27 28 29 30 30 31 33 34 35 36 37 37 37 38 38 37 37 38 38 36 34 34 33 33 33 32 32 29 28 27 26 26 25 25 25 25 24
25 25 25 24 25 25 25 26 26 27 27 28 29 30 31 32 33 35 36 36 36 36 37 36 37 36 35 34 34 33 33 33 32 32 31 30 29 27 26 26 26 26 26
23 22 22 22 22 22 22 23 22 23 23 24 25 26 28 29 29 30 32 33 33 35 35 35 36 36 35 35 35 35 34 33 33 32 32 32 31 30 29 28 28 27 27
22 21 21 21 20 20 20 20 20 20 20 21 21 22 23 24 25 26 27 28 29 31 32 33 35 35 35 35 36 36 35 33 33 33 33 33 32 31 30 29 29 29 29
20 20 20 20 20 19 19 19 18 18 18 18 17 17 18 19 20 22 23 24 25 27 29 30 32 33 32 34 36 36 35 35 34 34 34 33 33 32 32 31 31 31 31
19 20 20 20 20 19 19 18 17 17 16 15 15 14 13 13 14 16 18 20 22 23 25 27 29 30 31 33 34 35 35 34 34 35 35 34 34 33 32 32 32 32 33
20 20 20 20 20 19 18 18 17 16 15 14 13 12 10 10 10 11 13 15 17 19 21 23 24 26 29 30 32 33 34 34 34 34 33 34 35 35 34 34 33 32 32
21 21 20 20 20 20 19 18 17 16 16 14 13 12 10 9 8 8 9 10 12 14 16 17 19 22 24 26 27 29 30 31 32 32 31 32 33 33 34 34 33 33 33
21 21 20 20 21 20 20 19 19 18 17 16 14 13 12 10 8 7 7 8 9 10 12 14 15 17 19 21 23 25 25 25 27 28 29 29 30 31 32 33 32 31 31
21 21 21 21 21 21 21 21 20 19 18 17 16 15 15 12 10 9 7 6 6 6 7 8 10 12 14 16 18 20 22 22 23 24 25 26 27 28 28 29 29 29 29
21 22 22 21 21 22 22 22 22 22 20 19 17 17 16 14 13 11 10 8 6 5 5 6 7 8 11 12 14 16 18 19 19 21 23 24 25 26 26 27 28 28 28
22 22 22 22 22 23 23 22 22 22 22 20 19 18 18 16 15 14 12 10 9 7 6 5 6 7 8 9 11 13 14 15 17 19 20 21 22 23 24 25 26 27 27
21 22 22 22 22 23 23 23 23 23 23 22 21 20 18 18 17 15 14 12 11 9 8 7 6 5 6 8 9 11 12 14 16 17 19 20 20 21 21 22 23 24 25
20 21 22 22 23 23 23 23 23 23 22 22 22 21 20 19 18 18 16 14 13 12 10 9 7 6 6 7 7 9 11 12 13 14 15 16 17 18 19 20 22 22 22
20 20 21 21 22 23 23 23 23 23 23 22 22 22 21 21 20 19 18 17 16 14 12 11 10 8 6 5 5 6 7 8 10 11 12 13 15 15 16 17 18 19 20
19 20 20 21 21 22 23 23 23 23 23 23 23 22 22 21 21 21 19 18 17 16 14 13 11 10 9 6 6 4 3 4 5 7 8 10 11 12 13 13 14 15 16
19 19 20 20 21 22 22 23 23 23 23 23 23 23 22 22 22 22 21 19 18 17 17 15 14 12 11 9 8 6 4 3 3 4 5 5 6 7 8 10 11 13 15
18 18 19 19 20 21 22 22 23 23 23 23 23 23 23 23 23 23 22 21 20 19 18 17 16 14 13 12 10 8 6 4 2 2 2 3 2 3 4 6 7 9 10
17 17 18 19 19 20 21 21 22 23 23 23 24 23 23 23 23 23 23 22 21 20 19 18 18 17 15 14 13 11 8 6 5 4 2 1 1 1 1 2 4 5 6
15 16 17 17 18 19 19 20 21 22 22 22 23 23 23 23 23 22 22 22 22 21 20 19 18 18 17 15 14 12 11 9 7 6 4 3 2 1 1 1 2 3 5
14 14 15 16 17 17 18 19 20 20 21 21 22 22 22 22 22 22 22 22 21 21 20 19 19 18 17 16 15 13 12 10 9 7 6 5 4 3 3 2 2 2 3
12 13 14 14 15 16 17 17 18 19 19 20 20 20 21 21 21 22 21 21 21 21 21 19 19 18 18 17 16 14 13 12 11 10 9 8 7 5 5 4 4 4 4
11 12 12 13 13 14 15 16 16 17 17 18 18 19 19 20 20 21 21 21 21 21 21 20 20 19 18 18 17 16 14 13 12 11 10 9 8 7 7 6 5 5 5
11 11 11 12 12 12 13 14 14 15 15 16 17 17 18 18 18 19 20 20 20 20 20 20 20 19 19 18 17 16 15 14 13 12 11 10 9 9 8 8 7 6 6
Wind_Direction
301 299 296 294 291 289 287 285 282 279 277 275 273 272 271 270 268 265 263 260 259 255 253 253 253 255 254 251 250 251 248 248 249 250 250 251 252 251 252 252 250 249 249
304 303 301 299 297 294 290 287 285 283 279 276 273 271 270 268 266 263 261 259 257 254 253 254 254 254 255 254 253 250 247 247 248 249 249 249 250 250 250 250 250 249 248
309 307 305 304 303 300 296 292 289 286 284 279 275 272 269 267 265 263 260 257 254 254 253 253 253 253 253 253 252 250 249 249 249 247 246 247 247 249 250 250 250 248 248
315 315 313 311 309 306 303 298 295 292 289 284 279 273 269 266 265 262 259 257 255 252 252 252 251 251 251 252 253 251 249 249 250 248 246 245 246 249 248 250 250 249 249
323 323 322 318 316 313 311 308 302 298 295 290 285 277 271 267 263 260 258 256 255 254 252 250 251 251 249 252 253 252 250 248 248 250 248 246 245 248 248 250 249 248 249
334 333 331 331 328 325 322 319 313 309 305 300 293 285 276 269 265 260 258 256 255 253 252 249 248 248 248 248 250 249 248 248 248 249 250 249 248 250 249 249 248 249 249
343 342 341 340 338 334 332 329 324 319 315 311 305 296 285 275 267 262 258 256 254 251 249 248 247 246 247 247 247 246 246 247 247 247 249 250 249 249 250 250 249 250 250
349 349 349 349 347 344 342 341 338 333 330 325 318 313 300 284 273 265 261 257 255 252 250 248 247 246 247 247 247 246 246 247 248 248 248 248 247 248 250 249 249 250 252
357 357 357 358 358 358 357 355 353 352 349 346 339 331 319 303 288 278 270 263 259 254 250 249 249 249 247 246 246 247 248 248 248 248 247 248 248 247 248 249 249 250 252
7 7 8 9 9 10 9 7 6 3 2 3 1 357 349 329 309 295 284 276 270 262 254 251 250 250 248 245 244 245 247 247 247 249 248 250 249 249 249 249 249 251 252
14 16 16 16 16 16 16 15 14 14 14 14 13 10 4 356 343 327 308 293 286 275 261 255 253 250 248 247 247 246 246 247 247 248 248 249 249 247 247 248 248 250 251
18 19 19 19 19 20 21 21 21 22 22 22 23 21 18 17 14 4 347 331 312 304 285 271 257 252 248 246 246 247 248 247 247 247 246 247 247 246 246 248 250 249 250
22 23 24 25 26 27 28 28 28 28 28 27 27 26 24 22 20 16 12 3 351 337 319 301 273 259 254 253 250 249 247 246 247 248 249 249 249 247 247 250 249 249 250
26 28 28 29 29 29 29 29 28 28 28 28 28 28 27 25 22 20 18 15 8 0 350 330 301 273 267 263 257 253 251 250 252 253 252 252 250 248 248 248 247 248 250
27 28 28 28 28 28 28 28 28 28 28 29 29 27 26 26 25 24 20 16 11 6 359 350 335 304 283 274 265 263 259 256 256 255 255 253 252 249 248 249 248 250 249
26 26 27 27 27 27 27 28 28 28 28 28 28 27 27 26 26 24 23 20 18 15 10 7 360 342 319 298 281 270 266 260 258 259 257 255 254 253 252 250 250 250 249
24 24 24 24 25 25 26 27 27 27 27 27 28 28 29 29 28 27 26 26 25 23 21 18 14 4 348 334 316 295 274 268 263 260 256 254 254 258 255 251 248 246 246
22 22 23 23 24 24 25 26 27 27 27 28 28 28 27 28 27 26 27 28 29 29 27 24 23 20 15 12 4 345 311 289 273 261 254 252 250 246 244 243 244 241 237
21 22 23 24 24 24 25 25 25 26 27 27 28 28 28 28 28 28 29 31 32 32 32 32 32 31 30 30 23 12 354 330 306 275 254 245 239 231 230 232 235 234 233
20 21 23 23 24 24 24 24 25 26 27 27 28 29 29 30 30 31 32 33 34 34 35 35 35 34 33 32 29 25 23 19 11 337 298 256 243 229 240 234 233 229 226
17 18 19 21 22 23 24 25 25 27 27 28 29 29 30 31 31 32 33 34 34 35 35 36 36 35 34 34 32 29 32 37 37 31 18 337 279 234 258 238 221 214 210
13 15 17 18 20 21 23 24 24 25 26 27 28 29 29 30 31 32 32 33 34 34 34 35 35 34 34 35 35 36 37 39 44 48 53 69 88 104 129 173 195 198 197
5 8 11 14 16 17 19 21 22 24 25 26 27 28 29 29 30 30 31 31 32 33 34 35 35 35 34 34 34 36 40 47 48 50 57 70 84 89 101 128 152 157 170
355 358 2 6 10 13 15 17 19 21 23 24 25 26 27 28 29 30 30 31 32 33 33 34 34 35 36 35 36 39 44 49 54 59 64 70 77 81 86 91 94 103 123
343 347 351 355 0 4 9 13 15 16 19 21 22 23 24 26 27 28 29 31 32 33 33 34 34 34 35 36 38 42 46 49 53 57 61 64 69 74 82 89 93 95 102
334 337 341 345 349 354 358 2 7 11 14 16 19 21 22 23 25 26 27 28 29 31 32 33 34 36 36 38 40 42 46 49 52 55 59 64 70 74 80 85 90 94 97
Height
5850 5846 5843 5840 5838 5835 5833 5831 5830 5829 5828 5827 5826 5827 5827 5828 5830 5832 5834 5837 5839 5842 5845 5847 5850 5851 5855 5857 5860 5863 5865 5867 5870 5872 5874 5876 5878 5880 5881 5883 5884 5886 5888
5844 5840 5837 5833 5831 5828 5825 5823 5821 5819 5818 5817 5816 5816 5817 5818 5819 5821 5824 5826 5829 5832 5836 5839 5841 5844 5847 5849 5852 5855 5858 5860 5863 5865 5867 5870 5872 5873 5875 5877 5879 5881 5883
5838 5835 5831 5827 5824 5821 5818 5816 5813 5811 5809 5808 5807 5807 5807 5808 5809 5811 5813 5816 5819 5822 5826 5829 5832 5835 5838 5841 5843 5847 5850 5853 5855 5858 5861 5863 5865 5867 5870 5872 5873 5875 5877
5833 5829 5826 5822 5819 5815 5812 5809 5806 5804 5801 5800 5798 5798 5798 5799 5800 5801 5804 5806 5809 5812 5816 5819 5823 5826 5829 5832 5835 5839 5842 5845 5848 5850 5853 5856 5858 5861 5863 5866 5868 5869 5871
5830 5826 5822 5818 5814 5810 5807 5803 5800 5797 5795 5792 5791 5790 5789 5790 5791 5792 5794 5797 5799 5802 5806 5809 5813 5817 5820 5823 5827 5830 5833 5836 5839 5842 5845 5848 5851 5854 5856 5859 5861 5863 5865
5827 5823 5818 5814 5810 5807 5803 5799 5796 5792 5789 5787 5784 5783 5782 5782 5783 5784 5786 5788 5791 5794 5797 5800 5804 5807 5811 5815 5818 5821 5825 5828 5831 5834 5837 5840 5843 5845 5848 5851 5854 5855 5858
5825 5821 5817 5812 5808 5804 5800 5796 5792 5789 5785 5782 5780 5778 5777 5776 5777 5778 5779 5781 5783 5786 5789 5792 5795 5799 5802 5805 5808 5812 5816 5819 5822 5825 5829 5832 5835 5837 5840 5843 5846 5848 5850
5824 5820 5815 5811 5806 5802 5798 5794 5790 5786 5783 5780 5777 5775 5773 5772 5772 5773 5774 5775 5777 5779 5782 5784 5787 5790 5793 5797 5800 5803 5807 5810 5813 5816 5820 5823 5826 5829 5832 5835 5838 5840 5843
5824 5819 5815 5810 5806 5801 5797 5793 5789 5785 5782 5778 5775 5773 5771 5770 5769 5770 5770 5771 5772 5774 5776 5778 5780 5783 5786 5789 5791 5795 5798 5801 5805 5808 5810 5814 5817 5820 5823 5826 5829 5833 5835
5825 5820 5815 5811 5806 5802 5798 5794 5789 5785 5782 5779 5775 5772 5770 5769 5768 5768 5768 5769 5769 5770 5771 5773 5775 5777 5779 5781 5784 5787 5790 5793 5796 5799 5802 5806 5809 5812 5815 5818 5821 5824 5826
5827 5822 5817 5812 5808 5803 5799 5795 5791 5787 5783 5780 5776 5774 5771 5769 5768 5767 5767 5767 5767 5767 5767 5768 5769 5771 5773 5775 5778 5780 5782 5785 5788 5791 5794 5797 5800 5803 5807 5809 5812 5815 5818
5829 5824 5819 5815 5810 5806 5801 5797 5793 5789 5785 5782 5778 5775 5773 5770 5769 5767 5766 5765 5765 5764 5764 5765 5765 5766 5768 5770 5772 5774 5776 5779 5781 5784 5787 5790 5792 5796 5799 5801 5805 5807 5810
5831 5826 5822 5817 5813 5809 5804 5800 5796 5792 5788 5784 5781 5778 5775 5772 5770 5768 5766 5765 5764 5763 5762 5762 5762 5763 5765 5766 5767 5769 5771 5773 5775 5778 5780 5783 5786 5789 5792 5794 5797 5800 5802
5834 5830 5825 5821 5817 5812 5808 5803 5799 5795 5791 5788 5784 5781 5778 5775 5772 5770 5767 5765 5764 5763 5762 5761 5761 5761 5762 5763 5763 5765 5767 5769 5770 5772 5774 5777 5779 5782 5784 5787 5790 5792 5795
5837 5833 5829 5824 5820 5816 5811 5807 5803 5799 5795 5791 5787 5783 5780 5777 5774 5771 5769 5766 5764 5763 5761 5760 5760 5760 5760 5760 5761 5762 5763 5764 5766 5767 5769 5771 5773 5775 5778 5780 5782 5785 5787
5840 5836 5832 5828 5824 5819 5815 5811 5806 5802 5798 5794 5790 5786 5783 5780 5776 5773 5770 5768 5765 5763 5762 5760 5759 5759 5758 5758 5758 5758 5759 5760 5761 5763 5764 5766 5768 5769 5771 5774 5776 5779 5781
5843 5839 5835 5831 5827 5823 5818 5814 5810 5806 5802 5797 5793 5790 5786 5783 5779 5776 5773 5770 5767 5765 5762 5761 5759 5758 5757 5756 5756 5756 5756 5757 5758 5759 5760 5762 5763 5764 5766 5768 5771 5773 5776
5846 5842 5838 5834 5830 5826 5822 5817 5813 5809 5805 5801 5797 5793 5789 5786 5782 5779 5775 5772 5769 5766 5764 5762 5760 5758 5757 5756 5755 5755 5755 5755 5755 5756 5757 5758 5759 5760 5762 5764 5767 5769 5771
5848 5844 5841 5837 5833 5829 5825 5821 5817 5813 5809 5804 5800 5796 5792 5789 5785 5781 5778 5774 5771 5769 5766 5764 5762 5760 5758 5757 5756 5755 5754 5754 5754 5755 5755 5756 5757 5758 5759 5761 5763 5765 5767
5850 5847 5843 5840 5836 5832 5828 5824 5820 5816 5812 5808 5804 5800 5796 5792 5789 5785 5781 5777 5774 5771 5769 5766 5764 5762 5760 5759 5757 5755 5754 5754 5754 5754 5754 5755 5756 5757 5758 5759 5761 5762 5764
5853 5849 5846 5842 5839 5835 5831 5828 5824 5820 5816 5812 5808 5804 5800 5796 5792 5789 5785 5781 5778 5775 5772 5769 5767 5765 5763 5760 5759 5757 5755 5755 5755 5754 5754 5755 5756 5756 5757 5758 5759 5760 5762
5854 5851 5848 5845 5841 5838 5834 5831 5827 5823 5819 5815 5811 5807 5804 5800 5796 5793 5789 5786 5782 5779 5776 5773 5770 5768 5765 5763 5761 5759 5757 5756 5756 5755 5755 5755 5756 5756 5757 5757 5758 5759 5761
5855 5853 5850 5847 5844 5840 5837 5833 5830 5826 5822 5819 5815 5811 5808 5804 5800 5796 5793 5790 5786 5783 5780 5777 5774 5771 5768 5766 5763 5761 5759 5758 5757 5757 5756 5756 5756 5757 5757 5758 5759 5759 5760
5856 5853 5851 5848 5845 5842 5839 5836 5832 5829 5825 5822 5818 5815 5811 5808 5804 5800 5797 5793 5790 5787 5784 5780 5777 5775 5772 5769 5766 5764 5762 5761 5760 5759 5758 5758 5758 5758 5759 5759 5760 5761 5761
5856 5854 5851 5849 5846 5843 5840 5837 5834 5831 5828 5825 5821 5818 5814 5811 5808 5804 5801 5797 5794 5791 5788 5784 5781 5778 5775 5773 5770 5767 5765 5764 5762 5761 5761 5760 5760 5760 5761 5761 5761 5762 5763
5855 5853 5851 5848 5846 5844 5841 5838 5835 5833 5830 5827 5824 5820 5817 5814 5811 5807 5804 5801 5798 5794 5791 5788 5785 5782 5779 5776 5774 5771 5769 5767 5766 5765 5764 5763 5763 5763 5763 5763 5764 5764 5765